EW6393 Weather Reports


Display with metric or nautical units.
time (UTC)temp
F
wind
direction
speed
MPH
gust
MPH
rain 1hr
in
rain 24hr
in
rain mn
in
humidity
%
barometer
mb
20260509045120 64 312 0.0 1.0 0.00 0.00 0.00 31 1015.6
20260509044620 64 114 0.0 1.0 0.00 0.00 0.00 29 1015.4
20260509044127 64 114 0.0 1.0 0.00 0.00 0.00 29 1015.4
20260509043656 64 103 0.0 0.0 0.00 0.00 0.00 29 1015.3
20260509043137 64 103 0.0 1.0 0.00 0.00 0.00 30 1015.2
20260509042626 64 103 0.0 1.0 0.00 0.00 0.00 30 1015.2
20260509042125 64 103 0.0 1.0 0.00 0.00 0.00 30 1015.1
20260509041653 65 103 0.0 1.0 0.00 0.00 0.00 29 1015.1
20260509041114 65 103 0.0 1.0 0.00 0.00 0.00 29 1015.1
20260509040615 65 103 0.0 1.0 0.00 0.00 0.00 29 1015.1
20260509040122 65 103 0.0 1.0 0.00 0.00 0.00 29 1015.1
20260509035622 66 103 0.0 2.0 0.00 0.00 0.00 28 1015.0
20260509035123 65 87 1.0 2.0 0.00 0.00 0.00 29 1015.0
20260509034631 65 52 0.0 1.0 0.00 0.00 0.00 29 1015.0
20260509034133 65 52 0.0 0.0 0.00 0.00 0.00 29 1014.9
20260509033639 66 52 0.0 0.0 0.00 0.00 0.00 28 1014.8
20260509033119 66 52 0.0 2.0 0.00 0.00 0.00 28 1014.7
20260509032627 66 52 1.0 2.0 0.00 0.00 0.00 27 1014.6
20260509032128 66 58 0.0 2.0 0.00 0.00 0.00 28 1014.6
20260509031629 66 58 0.0 2.0 0.00 0.00 0.00 28 1014.5
20260509031137 66 66 0.0 1.0 0.00 0.00 0.00 28 1014.5
20260509030618 66 65 1.0 2.0 0.00 0.00 0.00 28 1014.5
20260509030117 67 58 0.0 2.0 0.00 0.00 0.00 27 1014.5
20260509025625 67 58 1.0 2.0 0.00 0.00 0.00 27 1014.5
20260509025126 67 65 0.0 2.0 0.00 0.00 0.00 27 1014.4
20260509024635 67 64 0.0 2.0 0.00 0.00 0.00 27 1014.5
20260509024115 67 58 0.0 1.0 0.00 0.00 0.00 27 1014.4
20260509023616 68 49 0.0 1.0 0.00 0.00 0.00 28 1014.4
20260509023120 68 49 0.0 1.0 0.00 0.00 0.00 27 1014.4
20260509022620 69 49 0.0 1.0 0.00 0.00 0.00 27 1014.4
20260509022121 69 43 0.0 1.0 0.00 0.00 0.00 27 1014.4
20260509021650 70 43 0.0 1.0 0.00 0.00 0.00 27 1014.4
20260509021137 71 40 0.0 1.0 0.00 0.00 0.00 26 1014.4
20260509020619 72 39 0.0 1.0 0.00 0.00 0.00 25 1014.4
20260509020149 72 40 0.0 1.0 0.00 0.00 0.00 24 1014.4
20260509015629 74 40 0.0 0.0 0.00 0.00 0.00 23 1014.5
20260509015153 75 40 0.0 1.0 0.00 0.00 0.00 23 1014.5
20260509014617 76 311 0.0 0.0 0.00 0.00 0.00 20 1014.4
20260509014136 76 276 0.0 3.0 0.00 0.00 0.00 20 1014.5
20260509013622 77 276 0.0 3.0 0.00 0.00 0.00 19 1014.5
20260509013123 77 274 1.0 3.0 0.00 0.00 0.00 19 1014.6
20260509012631 78 275 0.0 1.0 0.00 0.00 0.00 19 1014.6
20260509012115 77 347 0.0 1.0 0.00 0.00 0.00 20 1014.7
20260509011659 77 87 0.0 3.0 0.00 0.00 0.00 20 1014.7
20260509011118 78 79 2.0 3.0 0.00 0.00 0.00 18 1014.8
20260509010619 79 159 0.0 2.0 0.00 0.00 0.00 20 1014.9
20260509010127 78 198 0.0 6.0 0.00 0.00 0.00 20 1014.9
20260509005611 78 288 1.0 6.0 0.00 0.00 0.00 18 1014.9
20260509005126 79 123 2.0 5.0 0.00 0.00 0.00 18 1014.9
20260509004633 79 212 0.0 2.0 0.00 0.00 0.00 20 1015.0
20260509004114 78 241 0.0 5.0 0.00 0.00 0.00 21 1015.0
20260509003640 79 278 1.0 4.0 0.00 0.00 0.00 18 1015.1
20260509003120 78 111 1.0 3.0 0.00 0.00 0.00 19 1015.1
20260509002628 78 252 1.0 6.0 0.00 0.00 0.00 19 1015.0
20260509001611 77 231 1.0 8.0 0.00 0.00 0.00 21 1015.2
20260509001139 77 290 2.0 6.0 0.00 0.00 0.00 20 1015.2
20260509000639 77 107 1.0 4.0 0.00 0.00 0.00 21 1015.2
20260509000125 77 105 2.0 6.0 0.00 0.00 0.00 19 1015.3
20260508235626 77 313 1.0 6.0 0.00 0.00 0.00 19 1015.4
20260508235124 77 242 3.0 9.0 0.00 0.00 0.00 21 1015.4
20260508234632 77 289 5.0 9.0 0.00 0.00 0.00 20 1015.4
20260508234113 77 282 1.0 8.0 0.00 0.00 0.00 21 1015.4
20260508233615 77 281 3.0 8.0 0.00 0.00 0.00 21 1015.3
20260508233123 77 311 2.0 5.0 0.00 0.00 0.00 21 1015.4
20260508232624 76 146 0.0 8.0 0.00 0.00 0.00 22 1015.4
20260508232125 76 266 4.0 8.0 0.00 0.00 0.00 20 1015.5
20260508231633 76 285 4.0 10.0 0.00 0.00 0.00 20 1015.5
20260508231118 76 295 4.0 10.0 0.00 0.00 0.00 20 1015.6
20260508230620 77 239 3.0 8.0 0.00 0.00 0.00 20 1015.6
20260508230127 76 27 2.0 9.0 0.00 0.00 0.00 22 1015.7
20260508225628 76 335 4.0 9.0 0.00 0.00 0.00 22 1015.9
20260508225136 76 290 3.0 5.0 0.00 0.00 0.00 21 1015.8
20260508224638 76 290 2.0 5.0 0.00 0.00 0.00 22 1015.9
20260508224117 76 355 2.0 6.0 0.00 0.00 0.00 22 1016.0
20260508223624 76 301 1.0 6.0 0.00 0.00 0.00 21 1016.1
20260508223125 77 349 3.0 6.0 0.00 0.00 0.00 21 1016.2
20260508222626 76 272 2.0 7.0 0.00 0.00 0.00 24 1016.2
20260508222134 76 104 2.0 8.0 0.00 0.00 0.00 20 1016.4
20260508221614 76 224 2.0 8.0 0.00 0.00 0.00 23 1016.3
20260508221121 75 330 1.0 4.0 0.00 0.00 0.00 22 1016.4
20260508220622 75 281 1.0 6.0 0.00 0.00 0.00 20 1016.3
20260508220128 75 306 3.0 6.0 0.00 0.00 0.00 21 1016.6
20260508215629 76 311 2.0 7.0 0.00 0.00 0.00 21 1016.6
20260508215132 76 260 1.0 10.0 0.00 0.00 0.00 22 1016.7
20260508214617 76 283 5.0 9.0 0.00 0.00 0.00 22 1016.7
20260508214118 76 300 5.0 8.0 0.00 0.00 0.00 20 1016.7
20260508213627 76 293 3.0 8.0 0.00 0.00 0.00 22 1016.8
20260508213127 75 341 4.0 8.0 0.00 0.00 0.00 22 1016.8
20260508212627 75 281 2.0 8.0 0.00 0.00 0.00 22 1016.8
20260508212136 75 293 3.0 10.0 0.00 0.00 0.00 22 1016.9
20260508211617 75 300 6.0 10.0 0.00 0.00 0.00 22 1017.0
20260508211117 75 317 2.0 9.0 0.00 0.00 0.00 23 1017.0
20260508210623 75 295 4.0 9.0 0.00 0.00 0.00 21 1017.0
20260508210122 75 273 3.0 10.0 0.00 0.00 0.00 24 1017.2
20260508205649 75 250 5.0 13.0 0.00 0.00 0.00 22 1017.2
20260508205130 75 274 8.0 14.0 0.00 0.00 0.00 21 1017.3
20260508204637 74 251 6.0 14.0 0.00 0.00 0.00 21 1017.4
20260508204117 74 264 5.0 13.0 0.00 0.00 0.00 22 1017.4
20260508203617 75 274 7.0 13.0 0.00 0.00 0.00 22 1017.4
20260508203145 74 128 3.0 11.0 0.00 0.00 0.00 22 1017.3
20260508202641 74 283 5.0 10.0 0.00 0.00 0.00 22 1017.5
20260508202113 75 291 3.0 9.0 0.00 0.00 0.00 23 1017.5
20260508201656 74 285 3.0 9.0 0.00 0.00 0.00 24 1017.5
20260508201115 74 333 4.0 10.0 0.00 0.00 0.00 24 1017.6
20260508200616 74 294 4.0 10.0 0.00 0.00 0.00 24 1017.6
20260508200121 74 236 2.0 8.0 0.00 0.00 0.00 24 1017.6
20260508195629 73 290 3.0 8.0 0.00 0.00 0.00 26 1017.6
20260508195130 74 257 2.0 7.0 0.00 0.00 0.00 24 1017.6
20260508194612 73 278 3.0 4.0 0.00 0.00 0.00 27 1017.5
20260508194119 73 288 2.0 7.0 0.00 0.00 0.00 25 1017.6
20260508193648 73 275 3.0 7.0 0.00 0.00 0.00 27 1017.8
20260508193127 73 309 2.0 7.0 0.00 0.00 0.00 27 1017.7
20260508192629 73 278 1.0 9.0 0.00 0.00 0.00 26 1017.7
20260508192137 73 210 3.0 9.0 0.00 0.00 0.00 27 1017.8
20260508191618 73 307 2.0 8.0 0.00 0.00 0.00 27 1017.9
20260508191118 72 212 4.0 8.0 0.00 0.00 0.00 27 1017.9
20260508190625 72 287 2.0 8.0 0.00 0.00 0.00 28 1017.9
20260508190125 72 268 2.0 11.0 0.00 0.00 0.00 27 1018.0
20260508185632 72 278 5.0 11.0 0.00 0.00 0.00 26 1018.1
20260508185136 72 226 4.0 11.0 0.00 0.00 0.00 27 1018.1
20260508184616 72 243 3.0 11.0 0.00 0.00 0.00 27 1018.1
20260508184137 71 267 3.0 9.0 0.00 0.00 0.00 25 1018.1
20260508183644 72 311 3.0 6.0 0.00 0.00 0.00 27 1018.2
20260508183123 71 261 1.0 5.0 0.00 0.00 0.00 25 1018.2
20260508182632 71 262 2.0 6.0 0.00 0.00 0.00 26 1018.3
20260508182112 71 311 1.0 7.0 0.00 0.00 0.00 27 1018.3
20260508181639 71 255 2.0 11.0 0.00 0.00 0.00 29 1018.4
20260508181119 70 266 5.0 11.0 0.00 0.00 0.00 27 1018.4
20260508180620 70 302 3.0 12.0 0.00 0.00 0.00 27 1018.4
20260508180148 71 282 5.0 12.0 0.00 0.00 0.00 28 1018.5
20260508175636 71 288 3.0 6.0 0.00 0.00 0.00 31 1018.4
20260508175117 71 250 2.0 6.0 0.00 0.00 0.00 31 1018.5
20260508174618 70 238 3.0 6.0 0.00 0.00 0.00 31 1018.5
20260508174119 70 322 0.0 5.0 0.00 0.00 0.00 33 1018.5
20260508173627 69 297 1.0 8.0 0.00 0.00 0.00 35 1018.6
20260508173128 69 266 4.0 9.0 0.00 0.00 0.00 33 1018.6
20260508172636 70 282 6.0 9.0 0.00 0.00 0.00 31 1018.5
20260508172117 70 285 3.0 7.0 0.00 0.00 0.00 30 1018.5
20260508171616 70 235 1.0 9.0 0.00 0.00 0.00 30 1018.5
20260508171116 70 275 4.0 9.0 0.00 0.00 0.00 30 1018.5
20260508170624 70 279 1.0 4.0 0.00 0.00 0.00 32 1018.5
20260508170124 69 284 0.0 4.0 0.00 0.00 0.00 30 1018.4
20260508165629 69 227 1.0 4.0 0.00 0.00 0.00 32 1018.4
20260508165128 68 310 2.0 5.0 0.00 0.00 0.00 28 1018.4
20260508164635 68 246 1.0 5.0 0.00 0.00 0.00 30 1018.4
20260508164115 68 57 1.0 3.0 0.00 0.00 0.00 31 1018.4
20260508163623 68 288 2.0 3.0 0.00 0.00 0.00 33 1018.4
20260508163123 68 113 1.0 4.0 0.00 0.00 0.00 33 1018.4
20260508162630 68 287 1.0 4.0 0.00 0.00 0.00 34 1018.3
20260508162128 68 288 2.0 5.0 0.00 0.00 0.00 33 1018.3
20260508161629 67 320 3.0 5.0 0.00 0.00 0.00 34 1018.3
20260508161119 68 285 2.0 5.0 0.00 0.00 0.00 34 1018.3
20260508160618 68 288 2.0 4.0 0.00 0.00 0.00 33 1018.1
20260508160146 68 300 2.0 4.0 0.00 0.00 0.00 35 1018.1
20260508155653 67 257 1.0 3.0 0.00 0.00 0.00 34 1018.1
20260508155113 67 303 1.0 3.0 0.00 0.00 0.00 34 1018.1
20260508154613 67 235 1.0 3.0 0.00 0.00 0.00 32 1018.0
20260508154119 67 292 1.0 2.0 0.00 0.00 0.00 33 1018.0
20260508153620 67 270 1.0 2.0 0.00 0.00 0.00 34 1018.0
20260508153149 67 286 1.0 2.0 0.00 0.00 0.00 34 1018.0
20260508152628 67 237 0.0 1.0 0.00 0.00 0.00 34 1018.0
20260508152138 67 237 1.0 1.0 0.00 0.00 0.00 35 1017.9
20260508151617 66 170 0.0 1.0 0.00 0.00 0.00 36 1017.9
20260508151118 65 253 0.0 1.0 0.00 0.00 0.00 37 1017.9
20260508150626 64 253 0.0 1.0 0.00 0.00 0.00 37 1017.9
20260508150127 63 253 0.0 1.0 0.00 0.00 0.00 39 1017.8
20260508145635 63 262 0.0 1.0 0.00 0.00 0.00 40 1017.7
20260508145116 63 58 0.0 1.0 0.00 0.00 0.00 40 1017.7
20260508144616 62 61 0.0 1.0 0.00 0.00 0.00 39 1017.7
20260508144117 62 61 0.0 1.0 0.00 0.00 0.00 43 1017.7
20260508143646 62 61 0.0 0.0 0.00 0.00 0.00 43 1017.7
20260508143133 63 61 0.0 0.0 0.00 0.00 0.00 41 1017.7
20260508142613 63 61 0.0 0.0 0.00 0.00 0.00 41 1017.7
20260508142113 63 61 0.0 0.0 0.00 0.00 0.00 41 1017.6
20260508141616 62 61 0.0 0.0 0.00 0.00 0.00 41 1017.6
20260508141123 61 61 0.0 1.0 0.00 0.00 0.00 42 1017.5
20260508140624 59 61 0.0 1.0 0.00 0.00 0.00 44 1017.5
20260508140151 59 61 0.0 1.0 0.00 0.00 0.00 44 1017.5
20260508135611 58 61 0.0 1.0 0.00 0.00 0.00 45 1017.4
20260508135112 58 61 0.0 0.0 0.00 0.00 0.00 45 1017.3
20260508134621 56 61 0.0 1.0 0.00 0.00 0.00 48 1017.3
20260508134122 56 61 0.0 1.0 0.00 0.00 0.00 47 1017.3
20260508133630 56 61 0.0 1.0 0.00 0.00 0.00 45 1017.2
20260508133111 55 61 0.0 1.0 0.00 0.00 0.00 44 1017.1
20260508132612 55 61 1.0 2.0 0.00 0.00 0.00 45 1017.0
20260508132113 55 61 1.0 2.0 0.00 0.00 0.00 43 1017.0
20260508131620 55 36 0.0 2.0 0.00 0.00 0.00 44 1017.0
20260508131121 55 55 0.0 1.0 0.00 0.00 0.00 45 1017.0
20260508130628 55 56 0.0 2.0 0.00 0.00 0.00 44 1016.8
20260508130129 55 56 1.0 2.0 0.00 0.00 0.00 45 1016.8
20260508125637 54 56 1.0 2.0 0.00 0.00 0.00 45 1016.8
20260508125118 54 1 0.0 1.0 0.00 0.00 0.00 45 1016.8
20260508124618 54 86 0.0 1.0 0.00 0.00 0.00 46 1016.7
20260508124127 54 86 0.0 1.0 0.00 0.00 0.00 47 1016.5
20260508123627 54 87 1.0 2.0 0.00 0.00 0.00 46 1016.5
20260508123129 54 90 1.0 2.0 0.00 0.00 0.00 47 1016.5
20260508122637 54 98 0.0 2.0 0.00 0.00 0.00 48 1016.5
20260508122118 54 94 1.0 2.0 0.00 0.00 0.00 48 1016.5
20260508121620 54 63 0.0 1.0 0.00 0.00 0.00 48 1016.3
20260508121127 54 63 0.0 2.0 0.00 0.00 0.00 48 1016.3
20260508120655 54 76 1.0 2.0 0.00 0.00 0.00 48 1016.3
20260508120113 54 96 1.0 2.0 0.00 0.00 0.00 49 1016.3
20260508115613 55 85 1.0 1.0 0.00 0.00 0.00 49 1016.3
20260508115141 55 85 0.0 1.0 0.00 0.00 0.00 48 1016.3
20260508114624 56 85 1.0 1.0 0.00 0.00 0.00 46 1016.2
20260508114125 56 85 1.0 1.0 0.00 0.00 0.00 46 1016.1
20260508113635 55 89 1.0 2.0 0.00 0.00 0.00 46 1016.1
20260508113115 55 90 1.0 2.0 0.00 0.00 0.00 48 1016.1
20260508112616 55 108 1.0 1.0 0.00 0.00 0.00 47 1016.2
20260508112144 56 119 0.0 1.0 0.00 0.00 0.00 46 1016.2
20260508111624 56 107 1.0 1.0 0.00 0.00 0.00 46 1016.2
20260508111125 56 72 1.0 1.0 0.00 0.00 0.00 46 1016.2
20260508110633 56 73 0.0 2.0 0.00 0.00 0.00 46 1016.1
20260508110113 56 58 0.0 2.0 0.00 0.00 0.00 46 1016.2
20260508105641 56 64 1.0 2.0 0.00 0.00 0.00 46 1016.2
20260508105129 56 72 1.0 2.0 0.00 0.00 0.00 46 1016.2
20260508104629 56 72 1.0 1.0 0.00 0.00 0.00 45 1016.2
20260508104137 55 72 0.0 1.0 0.00 0.00 0.00 47 1016.1
20260508103616 56 72 0.0 1.0 0.00 0.00 0.00 46 1016.0
20260508103117 55 72 0.0 1.0 0.00 0.00 0.00 47 1016.0
20260508102617 55 95 1.0 1.0 0.00 0.00 0.00 47 1015.9
20260508102125 55 62 0.0 1.0 0.00 0.00 0.00 47 1015.9
20260508101626 55 62 0.0 1.0 0.00 0.00 0.00 47 1015.8
20260508101134 55 62 1.0 1.0 0.00 0.00 0.00 47 1015.8
20260508100615 56 62 0.0 2.0 0.00 0.00 0.00 46 1015.8
20260508100143 56 62 1.0 2.0 0.00 0.00 0.00 45 1015.8
20260508095622 55 68 1.0 2.0 0.00 0.00 0.00 47 1015.8
20260508095124 55 90 0.0 1.0 0.00 0.00 0.00 47 1015.7
20260508094632 56 90 0.0 2.0 0.00 0.00 0.00 46 1015.8
20260508094133 56 97 1.0 2.0 0.00 0.00 0.00 47 1015.7
20260508093619 56 122 0.0 1.0 0.00 0.00 0.00 45 1015.7
20260508093119 56 121 0.0 1.0 0.00 0.00 0.00 45 1015.6
20260508092627 56 122 0.0 1.0 0.00 0.00 0.00 46 1015.6
20260508092128 56 122 0.0 1.0 0.00 0.00 0.00 45 1015.6
20260508091629 57 122 0.0 1.0 0.00 0.00 0.00 44 1015.4
20260508091137 57 98 0.0 1.0 0.00 0.00 0.00 43 1015.4
20260508090617 56 62 1.0 1.0 0.00 0.00 0.00 44 1015.5
20260508090118 56 60 0.0 2.0 0.00 0.00 0.00 45 1015.4
20260508085625 57 60 0.0 2.0 0.00 0.00 0.00 43 1015.5
20260508085146 56 84 0.0 1.0 0.00 0.00 0.00 45 1015.5
20260508084632 57 84 0.0 1.0 0.00 0.00 0.00 44 1015.5
20260508084114 58 84 0.0 2.0 0.00 0.00 0.00 43 1015.6
20260508083642 58 84 0.0 2.0 0.00 0.00 0.00 42 1015.5
20260508083121 57 75 0.0 2.0 0.00 0.00 0.00 44 1015.7
20260508082623 58 124 0.0 1.0 0.00 0.00 0.00 43 1015.6
20260508082130 58 63 0.0 0.0 0.00 0.00 0.00 41 1015.6
20260508081611 58 63 0.0 1.0 0.00 0.00 0.00 42 1015.6
20260508081112 58 63 0.0 1.0 0.00 0.00 0.00 43 1015.5
20260508080612 58 63 0.0 0.0 0.00 0.00 0.00 42 1015.5
20260508080121 59 63 0.0 1.0 0.00 0.00 0.00 41 1015.5
20260508075622 59 63 0.0 2.0 0.00 0.00 0.00 39 1015.5
20260508075130 59 69 1.0 2.0 0.00 0.00 0.00 40 1015.5
20260508074637 60 75 1.0 2.0 0.00 0.00 0.00 39 1015.5
20260508074118 60 75 1.0 2.0 0.00 0.00 0.00 39 1015.4
20260508073619 60 67 1.0 2.0 0.00 0.00 0.00 38 1015.5
20260508073120 60 58 0.0 1.0 0.00 0.00 0.00 39 1015.4
20260508072627 60 58 1.0 1.0 0.00 0.00 0.00 39 1015.4
20260508072128 60 58 1.0 2.0 0.00 0.00 0.00 39 1015.4
20260508071629 60 60 1.0 1.0 0.00 0.00 0.00 38 1015.4
20260508071136 60 106 0.0 1.0 0.00 0.00 0.00 39 1015.4
20260508070618 60 106 0.0 1.0 0.00 0.00 0.00 39 1015.3
20260508070117 60 107 0.0 1.0 0.00 0.00 0.00 39 1015.3
20260508065645 60 80 0.0 1.0 0.00 0.00 0.00 39 1015.3
20260508065132 60 79 0.0 2.0 0.00 0.00 0.00 39 1015.2
20260508064633 60 79 1.0 2.0 0.00 0.00 0.00 38 1015.2
20260508064113 60 86 1.0 2.0 0.00 0.00 0.00 38 1015.2
20260508063621 61 84 1.0 3.0 0.00 0.00 0.00 38 1015.3
20260508063123 60 83 1.0 3.0 0.00 0.00 0.00 38 1015.3
20260508062651 60 53 1.0 2.0 0.00 0.00 0.00 39 1015.4
20260508062138 60 127 1.0 2.0 0.00 0.00 0.00 39 1015.3
20260508061618 60 103 0.0 2.0 0.00 0.00 0.00 39 1015.4
20260508061120 60 113 1.0 2.0 0.00 0.00 0.00 39 1015.3
20260508060648 60 107 1.0 2.0 0.00 0.00 0.00 39 1015.2
20260508060128 60 93 0.0 2.0 0.00 0.00 0.00 38 1015.2
20260508055636 61 93 0.0 2.0 0.00 0.00 0.00 37 1015.2
20260508055117 61 42 0.0 1.0 0.00 0.00 0.00 37 1015.1
20260508054617 61 63 0.0 1.0 0.00 0.00 0.00 37 1015.2
20260508054153 61 91 0.0 2.0 0.00 0.00 0.00 37 1015.1
20260508053613 61 89 1.0 2.0 0.00 0.00 0.00 36 1015.0
20260508053120 61 108 0.0 1.0 0.00 0.00 0.00 36 1015.0
20260508052620 61 102 0.0 1.0 0.00 0.00 0.00 37 1014.9
20260508052127 60 86 1.0 1.0 0.00 0.00 0.00 38 1014.9
20260508051628 60 69 0.0 1.0 0.00 0.00 0.00 39 1014.9
20260508051129 61 69 0.0 1.0 0.00 0.00 0.00 38 1014.9
20260508050638 61 68 0.0 1.0 0.00 0.00 0.00 37 1014.9
20260508050116 62 68 0.0 2.0 0.00 0.00 0.00 35 1014.8
20260508045617 62 72 1.0 1.0 0.00 0.00 0.00 35 1014.8